This demonstration page uses our WeatherBlox Daily Observations layout. Learn more.

Left ArrowRight Arrow

Hourly Observations for March 31, 2021

Temp ( °F °C ) Dew Point ( °F °C ) Humidity (%) Winds ( mph kmh ) Pressure ( in mb ) Visibility ( mi km ) Precip ( " mm )
12:15 am 00:15 Mostly Cloudy 31 -0.6 14 -10 49 49 N 6 9 30.35 1028 10 16 N/A
12:35 am 00:35 Partly Cloudy 30 -1 14 -10 51 51 N 5 7 30.37 1028 10 16 N/A
12:55 am 00:55 Partly Cloudy 30 -1.3 14 -10.1 52 52 N 6 9 30.38 1029 10 16 N/A
1:15 am 01:15 Mostly Cloudy 31 -0.3 14 -9.8 49 49 N 7 11 30.37 1028 10 16 N/A
1:35 am 01:35 Partly Cloudy 32 -0.1 15 -9.7 49 49 N 6 9 30.38 1029 10 16 N/A
1:55 am 01:55 Partly Cloudy 31 -0.5 15 -9.6 51 51 N 9 15 30.39 1029 10 16 N/A
2:15 am 02:15 Clear 29 -1.6 15 -9.6 55 55 N 8 13 30.41 1030 10 16 N/A
2:35 am 02:35 Clear 26 -3.2 15 -9.5 62 62 N 6 9 30.44 1031 10 16 N/A
2:55 am 02:55 Clear 29 -1.4 15 -9.7 54 54 N 7 11 30.43 1030 10 16 N/A
3:15 am 03:15 Clear 28 -2.2 15 -9.6 57 57 NNW 7 11 30.45 1031 10 16 N/A
3:35 am 03:35 Mostly Cloudy 29 -1.6 14 -9.8 54 54 N 7 11 30.44 1031 10 16 N/A
3:55 am 03:55 Partly Cloudy 29 -1.7 14 -9.9 54 54 N 7 11 30.45 1031 10 16 N/A
4:15 am 04:15 Clear 28 -2.4 14 -10.1 56 56 NNW 5 7 30.46 1031 10 16 N/A
4:35 am 04:35 Clear 25 -3.7 15 -9.6 64 64 N N/A 30.47 1032 10 16 N/A
4:55 am 04:55 Clear 26 -3.6 15 -9.6 64 64 N N/A 30.47 1032 10 16 N/A
5:15 am 05:15 Clear 24 -4.5 15 -9.7 67 67 N N/A 30.49 1033 10 16 N/A
5:35 am 05:35 Clear 25 -3.8 14 -9.8 63 63 NNW 7 11 30.48 1032 10 16 N/A
5:55 am 05:55 Clear 27 -2.9 13 -10.6 56 56 N 6 9 30.48 1032 10 16 N/A
6:15 am 06:15 Clear 24 -4.3 13 -10.3 63 63 N 3 6 30.51 1033 10 16 N/A
6:35 am 06:35 Clear 24 -4.5 13 -10.4 64 64 NNW 5 7 30.52 1034 10 16 N/A
6:55 am 06:55 Clear 24 -4.4 13 -10.5 63 63 N 6 9 30.52 1034 10 16 N/A
7:15 am 07:15 Clear 26 -3.6 12 -11.2 56 56 NNW 3 6 30.52 1034 10 16 N/A
7:35 am 07:35 Sunny 23 -5 13 -10.6 65 65 N N/A 30.55 1034 10 16 N/A
7:55 am 07:55 Sunny 24 -4.5 14 -10.1 65 65 NW 5 7 30.55 1035 10 16 N/A
8:15 am 08:15 Partly Cloudy 26 -3.2 15 -9.5 62 62 NW 3 6 30.55 1034 10 16 N/A
8:35 am 08:35 Cloudy 28 -2.2 16 -8.8 61 61 N N/A 30.54 1034 10 16 N/A
8:55 am 08:55 Partly Cloudy 30 -0.9 15 -9.3 53 53 N N/A 30.53 1034 10 16 N/A
9:15 am 09:15 Sunny 32 undefined 15 -9.2 50 50 NNW 3 6 30.54 1034 10 16 N/A
9:35 am 09:35 Partly Cloudy 34 1.1 9 -12.8 35 35 N 3 6 30.53 1034 10 16 N/A
9:55 am 09:55 Partly Cloudy 35 1.8 10 -12.3 35 35 N N/A 30.52 1033 10 16 N/A
10:15 am 10:15 Partly Cloudy 37 2.5 8 -13.2 31 31 N N/A 30.52 1034 10 16 N/A
10:35 am 10:35 Mostly Cloudy 38 3.1 9 -12.8 30 30 NW 3 6 30.52 1033 10 16 N/A
10:55 am 10:55 Cloudy 39 3.8 8 -13.2 28 28 N N/A 30.52 1034 10 16 N/A
11:15 am 11:15 Cloudy 40 4.7 10 -12.4 28 28 WNW 8 13 30.51 1033 10 16 N/A
11:35 am 11:35 Cloudy 41 4.8 9 -12.6 27 27 W 8 13 30.52 1034 10 16 N/A
11:55 am 11:55 Cloudy 42 5.7 11 -11.8 27 27 W 10 17 30.50 1033 10 16 N/A
12:15 pm 12:15 Partly Cloudy 44 6.6 12 -11.3 27 27 WSW 6 9 30.49 1033 10 16 N/A
12:35 pm 12:35 Partly Cloudy 44 6.7 12 -11.1 27 27 WSW 8 13 30.49 1033 10 16 N/A
12:55 pm 12:55 Partly Cloudy 45 7.3 13 -10.5 27 27 NW 9 15 30.48 1032 10 16 N/A
1:15 pm 13:15 Partly Cloudy 47 8.6 14 -10.1 26 26 NNW 15 24 30.46 1031 10 16 N/A
1:35 pm 13:35 Partly Cloudy 47 8.6 15 -9.7 27 27 NNW 16 26 30.45 1031 10 16 N/A
1:55 pm 13:55 Sunny 47 8.6 15 -9.5 27 27 NNW 9 15 30.44 1031 10 16 N/A
2:15 pm 14:15 Partly Cloudy 49 9.3 15 -9.7 25 25 NW 10 17 30.43 1030 10 16 N/A
2:35 pm 14:35 Cloudy 48 9.1 15 -9.4 26 26 WNW 15 24 30.43 1031 10 16 N/A
2:55 pm 14:55 Cloudy 49 9.3 16 -8.9 27 27 WNW 10 17 30.42 1030 10 16 N/A
3:15 pm 15:15 Cloudy 48 9.1 17 -8.1 29 29 NW 17 28 30.42 1030 10 16 N/A
3:35 pm 15:35 Mostly Cloudy 49 9.5 20 -6.7 32 32 NW 14 22 30.42 1030 10 16 N/A
3:55 pm 15:55 Mostly Cloudy 50 10.1 20 -6.9 30 30 WNW 12 19 30.41 1030 10 16 N/A
4:15 pm 16:15 Cloudy 48 9 20 -6.8 32 32 NW 16 26 30.42 1030 10 16 N/A
4:35 pm 16:35 Mostly Cloudy 49 9.5 19 -7 31 31 NNW 17 28 30.42 1030 10 16 N/A
4:55 pm 16:55 Mostly Cloudy 49 9.5 18 -8 29 29 NW 10 17 30.42 1030 10 16 N/A
5:15 pm 17:15 Mostly Cloudy 50 9.9 17 -8.1 28 28 NW 12 19 30.40 1030 10 16 N/A
5:35 pm 17:35 Cloudy 50 9.9 17 -8.3 27 27 NW 17 28 30.41 1030 10 16 N/A
5:55 pm 17:55 Partly Cloudy 49 9.7 16 -8.7 27 27 NW 14 22 30.42 1030 10 16 N/A
6:15 pm 18:15 Sunny 49 9.7 15 -9.4 25 25 NNW 15 24 30.42 1030 10 16 N/A
6:35 pm 18:35 Sunny 49 9.5 15 -9.7 25 25 N 10 17 30.43 1030 10 16 N/A
6:55 pm 18:55 Sunny 49 9.3 13 -10.8 23 23 N 13 20 30.43 1030 10 16 N/A
7:15 pm 19:15 Sunny 48 8.7 12 -11 24 24 N 16 26 30.44 1031 10 16 N/A
7:35 pm 19:35 Sunny 46 7.8 12 -11 25 25 N 9 15 30.45 1031 10 16 N/A
7:55 pm 19:55 Sunny 43 6.3 13 -10.5 29 29 NNE 8 13 30.48 1032 10 16 N/A
8:15 pm 20:15 Clear 41 4.8 13 -10.7 32 32 NNE 7 11 30.49 1033 10 16 N/A
8:35 pm 20:35 Clear 38 3.1 12 -11 35 35 N 6 9 30.52 1033 10 16 N/A
8:55 pm 20:55 Clear 36 2.4 13 -10.8 37 37 NE 5 7 30.53 1034 10 16 N/A
9:15 pm 21:15 Clear 36 2 12 -11.1 38 38 NE 8 13 30.54 1034 10 16 N/A
9:35 pm 21:35 Clear 34 1.1 12 -11.3 39 39 NE 8 13 30.56 1035 10 16 N/A
9:55 pm 21:55 Clear 33 0.3 12 -11.1 42 42 ENE 6 9 30.56 1035 10 16 N/A
10:15 pm 22:15 Clear 32 -0.1 12 -10.9 44 44 ENE 5 7 30.58 1035 10 16 N/A
10:35 pm 22:35 Clear 33 0.8 13 -10.7 42 42 E 3 6 30.57 1035 10 16 N/A
10:55 pm 22:55 Clear 33 0.4 13 -10.6 44 44 ESE 5 7 30.57 1035 10 16 N/A
11:15 pm 23:15 Clear 31 -0.5 15 -9.4 51 51 E 5 7 30.58 1036 10 16 N/A
11:35 pm 23:35 Clear 32 0.1 14 -10.2 46 46 E 5 7 30.58 1035 10 16 N/A
11:55 pm 23:55 Clear 33 0.3 14 -10.1 46 46 S 3 6 30.57 1035 10 16 N/A

Powered by AerisWeather